Location: *
(45.5224°N, 122.7471°W)
Time: 03:54:01
(UTC+00:00)

STARLINK-1063 - Pass Details

Date: 09 April 2020
Orbit: 548 x 550 km, 53.0° (Epoch: 25 May)

Event Time Altitude Azimuth Distance (km) Brightness Sun altitude
Exits shadow 12:20:39 21° 257° (WSW) 1,271 4.9 -13.2°
Maximum altitude 12:23:18 61° 333° (NNW) 625 3.8 -12.7°
Drops below altitude 10° 12:27:25 10° 55° (NE) 1,827 7.7 -12.1°
Sets 12:29:41 0° 59° (ENE) 2,723 9.2 -11.7°
